Location: Asis
(14.1331°N, 120.9056°E)
Time: 09:08:07
(UTC+00:00)

Cosmos 2297 - Pass Details

Date: 15 January 2026
Orbit: 836 x 856 km, 71.0° (Epoch: 8 February)

Event Time Altitude Azimuth Distance (km) Brightness Sun altitude
Rises 10:08:31 0° 337° (NNW) 3,391 6.9 -5.7°
Reaches altitude 10° 10:10:58 10° 334° (NNW) 2,459 6.2 -6.2°
Maximum altitude 10:16:31 60° 255° (WSW) 964 4.4 -7.5°
Drops below altitude 10° 10:22:06 10° 176° (S) 2,471 6.3 -8.8°
Sets 10:24:35 0° 173° (S) 3,408 7.0 -9.3°
